Rantoul, IL

2:12 PM CDT on March 29, 2017 (GMT -0500)
Rantoul

Weather History for KTIP - November, 2012

Change the Weather History Date:

Wednesday, November 28, 2012

  Actual Average (KCMI) Record (KCMI)
Temperature  
Mean Temperature 36 °F -  
Max Temperature 47 °F 44 °F 69 °F (1998)
Min Temperature 26 °F 29 °F 13 °F (2014)
Degree Days  
Heating Degree Days 28    
Moisture  
Dew Point 24 °F    
Average Humidity 66    
Maximum Humidity 84    
Minimum Humidity 40    
Precipitation  
Precipitation 0.00 in - - ()
Sea Level Pressure  
Sea Level Pressure 30.36 in    
Wind  
Wind Speed 5 mph (SW)    
Max Wind Speed 8 mph    
Max Gust Speed -    
Visibility 10 miles    
Events      
Averages and records for this station are not official NWS values.
T = Trace of Precipitation, MM = Missing Value Source: NWS Daily Summary

Daily Weather History Graph

Daily Weather History Graph

Search for Another Location

Airport or City:

Trip Planner

Search our weather history database for the weather conditions in past years. The results will help you decide how hot, cold, wet, or windy it might be!

Date:

Astronomy

Nov. 28, 2012 Rise Set
Actual Time 6:53 AM CST 4:27 PM CST
Civil Twilight 6:23 AM CST 4:57 PM CST
Nautical Twilight 5:49 AM CST 5:31 PM CST
Astronomical Twilight 5:17 AM CST 6:04 PM CST
Moon 4:42 PM CST (11/28) 6:50 AM CST (11/28)
Length of Visible Light 10h 34m
Length of Day
9h 34m
Full, 100% of the Moon is Illuminated
Nov 28
Full
Dec 6
Last Quarter
Dec 13
New
Dec 19
First Quarter
Dec 28
Full

Hourly Weather History & Observations

Time (CST) Temp. Windchill Dew Point Humidity Pressure Visibility Wind Dir Wind Speed Gust Speed Precip Events Conditions
12:15 AM 30.2 °F 25.4 °F 22.3 °F 72% 30.30 in 10.0 mi SW 4.6 mph - N/A   Clear
12:35 AM 29.7 °F 23.7 °F 22.1 °F 73% 30.30 in 10.0 mi SW 5.8 mph - N/A   Clear
12:55 AM 29.5 °F 22.5 °F 22.5 °F 75% 30.30 in 10.0 mi SW 6.9 mph - N/A   Clear
1:15 AM 29.1 °F 22.1 °F 22.6 °F 77% 30.31 in 10.0 mi SW 6.9 mph - N/A   Clear
1:35 AM 28.8 °F 21.7 °F 22.6 °F 78% 30.31 in 10.0 mi SW 6.9 mph - N/A   Clear
1:55 AM 27.5 °F 21.1 °F 22.3 °F 81% 30.31 in 10.0 mi SW 5.8 mph - N/A   Clear
2:15 AM 27.0 °F 21.6 °F 21.9 °F 81% 30.32 in 10.0 mi SW 4.6 mph - N/A   Clear
2:35 AM 26.6 °F 21.2 °F 22.1 °F 83% 30.32 in 10.0 mi SW 4.6 mph - N/A   Clear
2:55 AM 26.4 °F 20.9 °F 21.6 °F 82% 30.32 in 10.0 mi SW 4.6 mph - N/A   Clear
3:15 AM 26.4 °F 20.9 °F 22.1 °F 84% 30.33 in 10.0 mi SW 4.6 mph - N/A   Scattered Clouds
3:35 AM 26.4 °F 19.8 °F 22.1 °F 84% 30.32 in 10.0 mi SW 5.8 mph - N/A   Scattered Clouds
3:55 AM 28.4 °F 23.3 °F 23.2 °F 81% 30.32 in 10.0 mi WSW 4.6 mph - N/A   Scattered Clouds
4:15 AM 29.3 °F 23.2 °F 23.4 °F 78% 30.32 in 10.0 mi WSW 5.8 mph - N/A   Scattered Clouds
4:35 AM 30.0 °F 25.2 °F 23.7 °F 77% 30.33 in 10.0 mi WSW 4.6 mph - N/A   Scattered Clouds
4:55 AM 30.2 °F 26.7 °F 24.4 °F 79% 30.33 in 10.0 mi WSW 3.5 mph - N/A   Scattered Clouds
5:15 AM 30.0 °F 24.1 °F 23.7 °F 77% 30.33 in 10.0 mi West 5.8 mph - N/A   Scattered Clouds
5:35 AM 29.3 °F 24.3 °F 22.8 °F 77% 30.34 in 10.0 mi West 4.6 mph - N/A   Clear
5:55 AM 28.0 °F 22.8 °F 22.3 °F 79% 30.34 in 10.0 mi West 4.6 mph - N/A   Clear
6:15 AM 26.6 °F 20.0 °F 22.1 °F 83% 30.35 in 10.0 mi West 5.8 mph - N/A   Clear
6:35 AM 26.4 °F 18.9 °F 22.1 °F 84% 30.36 in 10.0 mi West 6.9 mph - N/A   Clear
6:55 AM 26.4 °F 18.9 °F 21.6 °F 82% 30.37 in 10.0 mi West 6.9 mph - N/A   Clear
7:15 AM 26.6 °F 20.0 °F 21.4 °F 81% 30.37 in 10.0 mi West 5.8 mph - N/A   Clear
7:35 AM 27.7 °F 20.4 °F 21.6 °F 78% 30.38 in 10.0 mi West 6.9 mph - N/A   Clear
7:55 AM 28.8 °F 21.7 °F 22.6 °F 78% 30.38 in 10.0 mi West 6.9 mph - N/A   Clear
8:15 AM 30.7 °F 24.9 °F 22.8 °F 72% 30.39 in 10.0 mi West 5.8 mph - N/A   Clear
8:35 AM 32.0 °F 25.6 °F 23.2 °F 70% 30.39 in 10.0 mi West 6.9 mph - N/A   Clear
8:55 AM 33.3 °F 27.1 °F 23.4 °F 67% 30.39 in 10.0 mi West 6.9 mph - N/A   Clear
9:15 AM 35.2 °F 29.5 °F 23.2 °F 62% 30.40 in 10.0 mi WNW 6.9 mph - N/A   Clear
9:35 AM 36.5 °F 31.8 °F 22.6 °F 57% 30.41 in 10.0 mi West 5.8 mph - N/A   Clear
9:55 AM 37.9 °F 34.4 °F 22.8 °F 55% 30.41 in 10.0 mi WNW 4.6 mph - N/A   Clear
10:15 AM 39.0 °F 36.8 °F 22.8 °F 52% 30.42 in 10.0 mi West 3.5 mph - N/A   Clear
10:35 AM 40.1 °F - 23.0 °F 51% 30.42 in 10.0 mi Calm Calm - N/A   Clear
10:55 AM 41.0 °F - 23.4 °F 50% 30.41 in 10.0 mi Calm Calm - N/A   Clear
11:15 AM 41.7 °F - 23.7 °F 49% 30.41 in 10.0 mi Calm Calm - N/A   Clear
11:35 AM 43.3 °F 39.9 °F 24.8 °F 48% 30.41 in 10.0 mi West 5.8 mph - N/A   Clear
11:55 AM 44.2 °F 41.0 °F 25.0 °F 47% 30.40 in 10.0 mi West 5.8 mph - N/A   Clear
12:15 PM 45.0 °F 41.2 °F 25.3 °F 46% 30.40 in 10.0 mi West 6.9 mph - N/A   Clear
12:35 PM 45.9 °F 41.7 °F 25.5 °F 45% 30.39 in 10.0 mi WSW 8.1 mph - N/A   Clear
12:55 PM 46.2 °F 43.3 °F 25.0 °F 43% 30.38 in 10.0 mi West 5.8 mph - N/A   Clear
1:15 PM 46.2 °F 43.3 °F 25.0 °F 43% 30.38 in 10.0 mi West 5.8 mph - N/A   Clear
1:35 PM 46.8 °F - 25.2 °F 43% 30.37 in 10.0 mi WSW 6.9 mph - N/A   Clear
1:55 PM 46.8 °F - 24.1 °F 41% 30.37 in 10.0 mi West 6.9 mph - N/A   Clear
2:15 PM 47.1 °F - 24.1 °F 40% 30.37 in 10.0 mi West 4.6 mph - N/A   Clear
2:35 PM 47.1 °F - 23.7 °F 40% 30.36 in 10.0 mi West 5.8 mph - N/A   Clear
2:55 PM 47.3 °F - 23.7 °F 40% 30.36 in 10.0 mi WSW 5.8 mph - N/A   Clear
3:15 PM 47.1 °F - 23.9 °F 40% 30.36 in 10.0 mi SW 4.6 mph - N/A   Clear
3:35 PM 46.6 °F - 24.1 °F 41% 30.36 in 10.0 mi SW 6.9 mph - N/A   Clear
3:55 PM 45.5 °F 41.8 °F 24.8 °F 44% 30.36 in 10.0 mi SW 6.9 mph - N/A   Clear
4:15 PM 43.9 °F 40.5 °F 24.4 °F 46% 30.36 in 10.0 mi SSW 5.8 mph - N/A   Clear
4:35 PM 40.5 °F 38.4 °F 25.0 °F 54% 30.36 in 10.0 mi SW 3.5 mph - N/A   Clear
4:55 PM 42.1 °F 40.2 °F 24.4 °F 50% 30.36 in 10.0 mi SSW 3.5 mph - N/A   Clear
5:15 PM 37.6 °F 35.1 °F 23.7 °F 57% 30.35 in 10.0 mi SSW 3.5 mph - N/A   Clear
5:35 PM 35.1 °F - 24.3 °F 65% 30.35 in 10.0 mi Calm Calm - N/A   Clear
5:55 PM 35.4 °F 32.6 °F 24.1 °F 63% 30.36 in 10.0 mi South 3.5 mph - N/A   Clear
6:15 PM 32.9 °F 29.8 °F 23.4 °F 68% 30.36 in 10.0 mi South 3.5 mph - N/A   Clear
6:35 PM 32.7 °F 28.3 °F 23.2 °F 68% 30.36 in 10.0 mi South 4.6 mph - N/A   Clear
6:55 PM 32.0 °F 27.5 °F 23.2 °F 70% 30.36 in 10.0 mi SSW 4.6 mph - N/A   Clear
7:15 PM 32.2 °F 27.7 °F 23.5 °F 70% 30.35 in 10.0 mi SSW 4.6 mph - N/A   Clear
7:35 PM 31.6 °F - 23.4 °F 71% 30.35 in 10.0 mi Calm Calm - N/A   Clear
7:55 PM 33.8 °F 30.8 °F 25.5 °F 72% 30.34 in 10.0 mi SSE 3.5 mph - N/A   Clear
8:15 PM 32.2 °F 27.7 °F 25.0 °F 75% 30.34 in 10.0 mi South 4.6 mph - N/A   Clear
8:35 PM 32.0 °F 25.6 °F 25.0 °F 75% 30.35 in 10.0 mi South 6.9 mph - N/A   Clear
8:55 PM 34.2 °F 28.2 °F 26.1 °F 72% 30.35 in 10.0 mi South 6.9 mph - N/A   Clear
9:15 PM 34.2 °F 27.5 °F 26.2 °F 73% 30.35 in 10.0 mi South 8.1 mph - N/A   Clear
9:35 PM 32.7 °F 27.3 °F 26.4 °F 78% 30.34 in 10.0 mi South 5.8 mph - N/A   Clear
9:55 PM 31.5 °F 25.8 °F 25.5 °F 79% 30.35 in 10.0 mi South 5.8 mph - N/A   Clear
10:15 PM 31.6 °F 26.0 °F 25.7 °F 79% 30.34 in 10.0 mi South 5.8 mph - N/A   Clear
10:35 PM 31.1 °F 24.5 °F 25.5 °F 80% 30.34 in 10.0 mi South 6.9 mph - N/A   Clear
10:55 PM 30.7 °F 24.1 °F 25.7 °F 82% 30.33 in 10.0 mi South 6.9 mph - N/A   Clear
11:15 PM 30.6 °F 24.7 °F 25.3 °F 81% 30.33 in 10.0 mi South 5.8 mph - N/A   Clear
11:35 PM 30.2 °F 26.7 °F 25.7 °F 83% 30.33 in 10.0 mi South 3.5 mph - N/A   Clear
11:55 PM 30.2 °F 23.4 °F 25.5 °F 83% 30.32 in 10.0 mi South 6.9 mph - N/A   Clear